Weather History for Worland, WY

Change the Weather History Date:

Saturday, March 30, 2013

  Actual Average Record
Temperature  
Mean Temperature 48 °F 41 °F  
Max Temperature 58 °F 55 °F 78 °F (1978)
Min Temperature 37 °F 27 °F 12 °F (1987)
Degree Days  
Heating Degree Days 17 24  
Month to date heating degree days 853 861  
Since 1 July heating degree days 6435 6862  
Cooling Degree Days 0 0  
Month to date cooling degree days 0 0  
Year to date cooling degree days 0 0  
Moisture  
Dew Point 34 °F    
Average Humidity 57    
Maximum Humidity 89    
Minimum Humidity 25    
Precipitation  
Precipitation 0.10 in 0.02 in 0.19 in (1993)
Month to date precipitation 0.20 0.44  
Year to date precipitation 0.59 0.86  
Sea Level Pressure  
Sea Level Pressure 30.16 in    
Wind  
Wind Speed 8 mph (WSW)    
Max Wind Speed 22 mph    
Max Gust Speed 26 mph    
Visibility 10 miles    
Events Rain    
T = Trace of Precipitation, MM = Missing Value Source: NWS Daily Summary

Daily Weather History Graph

Daily Weather History Graph

Search for Another Location

Airport:

Trip Planner

Search our weather history database for the weather conditions in past years. The results will help you decide how hot, cold, wet, or windy it might be!

Date:

Astronomy

Mar. 30, 2013 Rise Set
Actual Time 6:56 AM MDT 7:36 PM MDT
Civil Twilight 6:27 AM MDT 8:05 PM MDT
Nautical Twilight 5:52 AM MDT 8:40 PM MDT
Astronomical Twilight 5:17 AM MDT 9:16 PM MDT
Moon 11:55 PM MDT (3/30) 8:46 AM MDT (3/30)
Length of Visible Light 13h 38m
Length of Day
12h 40m
Waning Gibbous, 86% of the Moon is Illuminated
Mar 30
Waning Gibbous
Apr 2
Last Quarter
Apr 10
New
Apr 18
First Quarter
Apr 25
Full

Hourly Weather History & Observations

Time (MDT) Temp. Windchill Dew Point Humidity Pressure Visibility Wind Dir Wind Speed Gust Speed Precip Events Conditions
12:53 AM 42.1 °F 40.2 °F 35.1 °F 76% 30.12 in 10.0 mi West 3.5 mph - N/A   Overcast
1:53 AM 43.0 °F - 37.9 °F 82% 30.13 in 10.0 mi Calm Calm - 0.00 in   Overcast
2:53 AM 43.0 °F 37.7 °F 39.9 °F 89% 30.13 in 10.0 mi NNW 9.2 mph - N/A   Overcast
3:53 AM 41.0 °F 39.0 °F 39.0 °F 93% 30.13 in 4.0 mi NNW 3.5 mph - 0.03 in Rain Light Rain
4:53 AM 41.0 °F 37.1 °F 39.0 °F 93% 30.14 in 10.0 mi SW 5.8 mph - 0.03 in   Overcast
5:53 AM 41.0 °F 37.1 °F 39.0 °F 93% 30.13 in 8.0 mi WSW 5.8 mph - 0.01 in Rain Light Rain
6:53 AM 41.0 °F 39.0 °F 39.0 °F 93% 30.14 in 10.0 mi SSW 3.5 mph - 0.01 in   Overcast
7:08 AM 41.0 °F 39.0 °F 39.2 °F 93% 30.16 in 10.0 mi SW 3.5 mph - N/A   Overcast
7:53 AM 41.0 °F 34.3 °F 39.0 °F 93% 30.18 in 10.0 mi SW 11.5 mph - 0.00 in Rain Light Rain
8:16 AM 41.0 °F 34.7 °F 39.2 °F 93% 30.18 in 10.0 mi WSW 10.4 mph - 0.01 in   Overcast
8:35 AM 41.0 °F 34.3 °F 37.4 °F 87% 30.18 in 10.0 mi WSW 11.5 mph - 0.01 in   Overcast
8:53 AM 41.0 °F 33.9 °F 37.9 °F 89% 30.19 in 10.0 mi SW 12.7 mph - 0.01 in Rain Light Rain
9:34 AM 42.8 °F 36.6 °F 39.2 °F 87% 30.19 in 10.0 mi WSW 11.5 mph - N/A   Overcast
9:53 AM 42.1 °F 35.2 °F 39.0 °F 89% 30.21 in 10.0 mi WSW 12.7 mph - N/A   Overcast
10:39 AM 44.6 °F 39.7 °F 39.2 °F 81% 30.18 in 10.0 mi SW 9.2 mph - 0.00 in   Overcast
10:53 AM 45.0 °F 39.3 °F 39.0 °F 80% 30.20 in 10.0 mi WSW 11.5 mph - 0.00 in   Mostly Cloudy
11:53 AM 46.9 °F - 39.0 °F 74% 30.20 in 10.0 mi West 9.2 mph - 0.01 in   Overcast
12:53 PM 51.1 °F - 36.0 °F 56% 30.18 in 10.0 mi NW 10.4 mph - N/A   Mostly Cloudy
1:53 PM 53.1 °F - 33.1 °F 47% 30.17 in 10.0 mi NNW 8.1 mph - N/A   Scattered Clouds
2:53 PM 55.9 °F - 33.1 °F 42% 30.14 in 10.0 mi NNW 9.2 mph - N/A   Mostly Cloudy
3:53 PM 54.0 °F - 30.0 °F 40% 30.15 in 10.0 mi Variable 3.5 mph - 0.00 in   Mostly Cloudy
4:53 PM 57.9 °F - 25.0 °F 28% 30.12 in 10.0 mi North 13.8 mph - N/A   Mostly Cloudy
5:53 PM 57.0 °F - 23.0 °F 27% 30.12 in 10.0 mi North 9.2 mph 18.4 mph N/A   Partly Cloudy
6:53 PM 55.0 °F - 23.0 °F 29% 30.13 in 10.0 mi North 6.9 mph - N/A   Clear
7:53 PM 45.0 °F - 28.0 °F 52% 30.16 in 10.0 mi Calm Calm - N/A   Clear
8:53 PM 41.0 °F - 27.0 °F 57% 30.17 in 10.0 mi Calm Calm - N/A   Clear
9:53 PM 39.9 °F 35.8 °F 28.0 °F 63% 30.17 in 10.0 mi South 5.8 mph - N/A   Clear
10:53 PM 39.9 °F 32.9 °F 28.0 °F 63% 30.16 in 10.0 mi SSE 11.5 mph - N/A   Clear
11:53 PM 37.9 °F 30.9 °F 28.9 °F 70% 30.14 in 10.0 mi South 10.4 mph - N/A   Clear